Location: Focicchia
(42.2496°N, 9.2935°E)
Time: 18:16:35
(UTC+00:00)

Cosmos 2285 Rocket - Pass Details

Date: 07 June 2020
Orbit: 971 x 999 km, 74.0° (Epoch: 04 July)

Event Time Altitude Azimuth Distance (km) Brightness Sun altitude
Rises 00:21:16 0° 337° (NNW) 3,700 7.8 -23.5°
Reaches altitude 10° 00:23:50 10° 335° (NNW) 2,744 7.0 -23.4°
Maximum altitude 00:30:08 67° 254° (WSW) 1,052 4.0 -23.1°
Enters shadow 00:31:53 47° 192° (SSW) 1,266 4.1 -23.0°
